SCP
0 0 0 1 3 2 1 3 2 2 3 1 1 2 0 2 1 1 1 2 1 0 1 3 1 1 1 1 1 1 1 1 2 2 1 1 1 2 2 1 2 2 2
0 0 0 0 0 0 2 3 2 2 3 -1 3 0 1 1 3 1 2 0 0 1 1 1 1 2 1 2 2 2 2 2 2 2 2 1 1 1 1 2 2 1 1
0 0 0 0 0 0 1 3 4 3 3 4 1 0 -0 3 2 1 2 2 2 2 2 1 1 2 2 2 2 2 2 1 1 1 2 0 0 0 1 2 1 2 2
0 0 0 0 0 -0 0 1 4 7 7 6 4 10 5 4 2 2 2 3 2 1 1 1 1 2 1 1 1 1 0 1 0 1 1 1 1 1 0 0 1 2 1
0 0 0 0 0 0 0 1 2 3 3 2 3 4 3 3 2 2 2 3 2 1 2 2 1 1 1 1 0 0 0 0 0 0 0 0 0 0 1 1 0 0 0
0 0 0 0 0 0 0 1 2 1 1 2 1 1 1 2 5 2 3 3 2 1 1 1 1 1 0 0 0 0 0 0 0 0 0 0 0 0 0 0 0 0 0
0 0 0 0 0 0 0 0 1 1 1 1 1 1 3 3 2 2 2 1 1 1 1 1 1 0 0 0 0 0 0 0 0 0 0 0 0 0 0 0 0 0 0
0 0 0 0 0 0 0 0 0 1 2 2 3 3 3 3 3 2 1 1 0 0 1 0 0 0 0 0 0 0 0 0 0 0 0 0 0 0 0 0 0 0 0
0 0 0 0 0 0 1 1 2 3 2 2 2 3 3 3 2 1 1 1 1 0 1 0 0 0 0 0 0 0 0 0 0 0 0 0 0 0 0 0 0 0 0
0 0 0 1 1 1 1 2 1 2 2 2 2 2 1 1 1 1 1 1 1 0 0 0 0 0 0 0 0 0 0 0 0 0 0 0 0 0 0 0 0 0 0
0 0 0 0 1 1 2 2 1 1 1 1 1 2 1 1 1 1 1 1 1 0 0 0 0 0 0 0 0 0 0 0 0 0 0 0 0 0 0 0 0 0 0
0 0 0 0 0 0 0 1 1 1 1 1 2 2 1 1 1 1 1 1 0 0 0 0 0 0 0 0 0 0 0 0 0 0 0 0 0 0 0 0 0 0 0
0 0 0 0 0 0 0 0 0 0 0 0 0 0 0 0 0 1 0 0 0 0 0 0 0 0 0 0 0 0 0 0 0 0 0 0 0 0 0 0 0 0 0
0 0 0 0 0 0 0 0 0 0 0 0 0 0 0 0 0 0 0 0 0 0 0 0 0 0 0 0 0 0 0 0 0 0 0 0 0 0 0 0 0 0 0
0 0 0 0 0 0 0 0 0 0 0 0 0 0 0 0 0 0 0 0 0 0 0 0 0 0 0 0 0 0 0 1 0 1 0 0 0 0 0 0 0 0 0
0 0 0 0 0 0 0 0 0 0 0 0 0 0 0 0 0 0 0 0 0 0 0 0 0 0 0 0 0 0 0 0 1 1 1 1 0 0 0 0 0 0 0
0 0 0 0 0 0 0 0 0 0 0 0 0 0 0 0 0 0 0 0 0 0 0 0 0 0 0 0 0 0 0 0 0 1 1 0 0 0 0 0 0 0 0
0 0 0 0 0 0 0 0 0 0 0 0 0 0 0 0 0 0 0 0 0 0 0 0 0 0 0 0 0 0 0 0 0 0 0 0 0 0 0 0 0 0 0
0 0 0 0 0 0 0 0 0 0 0 0 0 0 0 0 0 0 0 0 0 0 0 0 0 0 0 0 0 0 0 0 0 0 0 0 0 0 0 0 0 0 0
0 0 0 0 0 0 0 0 0 0 0 0 0 0 0 0 0 0 0 0 0 0 0 0 0 0 0 0 0 0 0 0 0 0 0 0 0 0 0 0 0 0 0
0 0 0 0 0 0 0 0 -0 -0 0 0 0 0 0 0 0 0 0 0 0 0 0 0 0 0 0 0 0 0 0 0 0 0 0 0 0 0 0 0 0 0 0
0 0 0 0 0 0 0 0 -0 0 0 0 0 0 0 0 0 0 0 0 0 0 0 0 0 0 0 0 0 0 0 0 0 0 0 0 0 0 0 0 0 0 -0
0 0 0 0 0 0 0 0 0 0 0 0 0 0 0 0 0 0 0 0 0 0 0 0 0 0 0 0 0 0 0 0 0 0 0 0 0 0 0 0 0 0 -0
0 0 0 0 0 0 0 0 0 0 0 -0 -0 0 0 0 0 0 0 0 0 0 0 0 0 0 0 0 0 0 0 0 0 0 0 0 0 0 0 0 -0 -0 0
0 0 0 -0 -0 0 -0 -0 -0 -0 -0 -0 -0 -0 -0 -0 -0 0 0 0 0 0 0 0 0 0 0 0 0 0 0 0 0 0 0 0 0 0 0 -0 0 0 0
-0 -0 -0 -0 -0 -0 -0 -0 -0 -0 0 -0 0 -0 -0 -0 -0 0 0 0 0 0 0 0 0 0 0 0 0 0 0 0 0 0 0 0 0 0 0 -0 0 0 0
Wind_Speed_500mb
37 25 25 31 35 34 38 58 43 34 26 43 30 31 40 38 47 47 47 44 54 43 37 38 46 45 33 30 31 30 31 31 29 34 36 38 40 42 40 42 43 44 61
45 25 14 27 27 37 60 64 55 70 38 45 37 31 25 38 50 51 50 20 49 32 35 36 37 34 30 33 33 30 24 26 25 27 30 36 35 37 42 40 48 53 46
47 37 24 19 50 41 38 49 69 68 68 53 51 62 39 67 72 61 60 48 55 49 41 40 35 30 32 23 26 24 25 23 21 28 26 28 37 41 37 44 40 44 47
35 42 40 41 29 47 66 64 56 76 75 78 70 83 77 84 81 57 64 59 45 45 42 35 33 32 21 23 19 17 17 24 24 25 31 37 38 34 48 48 46 46 52
14 28 38 48 70 73 54 58 71 77 90 85 70 63 66 46 37 57 54 47 48 43 36 33 31 27 18 22 21 16 16 20 25 27 32 36 36 40 46 55 54 54 58
20 20 21 30 42 47 72 66 57 86 65 66 61 58 50 44 47 43 49 48 48 45 37 32 25 20 22 22 17 17 20 19 26 29 32 35 35 37 43 54 55 56 54
16 20 17 12 21 26 32 45 58 75 65 61 55 48 43 47 41 39 44 45 41 42 35 27 25 26 25 25 22 23 23 24 27 31 33 36 40 41 45 52 59 61 58
20 24 24 19 15 16 25 23 28 32 43 44 44 39 37 35 43 42 42 40 33 29 27 26 27 29 28 29 29 23 23 25 30 30 34 35 39 40 44 48 49 59 59
24 28 26 20 14 4 6 11 20 26 31 32 37 38 42 44 34 39 36 33 30 29 29 28 31 34 33 34 33 29 27 29 29 28 30 33 36 37 40 42 43 44 52
22 27 30 32 27 21 18 19 21 22 23 25 25 29 36 37 36 35 35 30 29 26 25 29 35 36 36 36 36 28 30 29 28 27 29 32 35 36 40 42 45 48 54
17 22 28 30 30 31 28 29 27 27 28 27 27 28 24 24 26 24 22 22 23 24 26 29 32 35 36 36 40 39 36 35 33 34 37 39 40 40 42 44 47 51 52
11 15 18 21 22 22 22 18 19 17 13 16 16 17 17 15 15 15 15 17 20 23 28 33 38 40 40 40 42 41 41 42 43 43 43 44 43 45 45 48 52 54 56
4 6 7 13 14 14 14 15 15 13 9 10 10 10 10 11 12 16 18 21 24 29 34 39 44 47 49 50 51 51 53 55 55 53 53 52 49 49 50 50 52 54 56
18 19 17 11 9 12 14 10 11 10 10 8 5 2 11 17 22 28 32 34 33 36 40 44 49 53 56 60 61 62 64 67 66 66 63 60 59 58 56 53 52 53 57
30 27 17 11 11 10 8 6 5 3 5 6 10 13 16 21 25 31 36 41 48 49 49 52 57 61 66 70 71 72 76 78 77 76 74 72 70 69 66 60 60 61 63
20 11 5 11 13 13 10 5 10 4 11 13 15 20 26 33 40 48 55 60 67 71 69 65 66 69 75 79 82 85 83 85 86 86 84 80 79 77 76 79 76 72 66
7 7 10 12 11 10 10 10 14 17 19 21 24 28 32 37 40 43 47 52 56 60 63 66 68 74 77 81 84 87 90 88 90 88 90 91 88 84 76 70 69 64 65
8 6 6 7 10 10 12 16 21 25 28 30 33 36 39 45 47 50 52 56 59 62 64 66 69 73 75 77 80 83 83 84 87 86 85 87 90 87 82 75 72 69 64
8 7 9 11 14 16 20 26 31 33 37 40 42 44 45 50 52 55 57 58 60 62 65 66 67 68 68 66 68 71 63 66 69 71 78 84 86 82 76 73 77 72 69
10 12 16 20 23 26 30 34 38 41 43 43 45 46 48 50 55 55 58 58 58 59 57 58 58 59 62 62 70 69 73 72 73 75 72 76 77 71 76 74 74 73 70
17 21 25 29 32 35 36 41 42 44 44 46 47 49 50 52 52 52 49 48 51 54 56 59 67 74 67 57 54 52 51 55 56 60 57 56 63 78 81 85 76 71 66
27 32 36 39 40 40 40 44 45 43 44 46 48 49 47 46 44 47 50 56 56 62 66 66 66 49 49 53 48 47 49 49 51 52 58 57 48 41 55 58 64 72 78
40 41 42 45 43 40 38 43 44 44 46 46 45 45 44 43 46 48 58 57 53 58 62 60 60 61 57 56 49 45 50 55 56 46 51 49 42 51 52 62 69 70 66
42 42 43 43 43 38 41 41 43 42 42 44 43 42 51 52 48 44 45 54 55 55 56 57 60 60 58 51 45 40 40 40 26 32 37 45 46 42 44 49 55 56 53
41 41 45 48 48 44 41 38 36 37 41 43 49 49 46 46 46 46 45 45 42 41 44 48 51 55 58 51 48 43 45 42 39 29 21 25 31 35 38 41 41 41 48
47 51 49 46 44 42 39 36 40 43 44 45 44 44 44 44 42 43 44 38 41 39 40 40 39 43 47 47 47 45 38 48 36 30 29 28 28 33 34 36 30 18 32
Wind_Direction_500mb
223 224 197 201 223 242 244 216 215 201 208 210 226 259 246 228 236 228 231 224 227 229 215 205 234 232 231 236 247 256 260 261 268 271 277 276 271 266 260 264 260 252 273
217 223 236 243 232 220 224 226 224 219 229 268 273 320 289 262 257 263 238 240 254 229 221 218 225 235 240 246 252 261 256 265 259 263 276 279 278 268 263 266 258 259 264
223 227 241 233 232 265 256 234 211 221 211 211 252 258 288 283 256 237 236 220 217 218 221 224 225 239 242 242 251 246 255 253 271 265 257 281 278 293 273 278 269 266 266
223 234 238 226 212 216 245 244 232 239 243 226 221 219 213 217 244 241 232 228 224 225 227 226 229 228 218 225 237 236 231 265 266 261 271 270 274 280 285 276 269 272 275
292 260 250 240 224 235 240 250 242 229 226 235 227 226 222 224 240 232 221 220 228 226 220 214 212 223 225 240 232 246 254 250 268 271 276 273 276 274 272 280 279 276 272
331 315 270 243 243 246 242 230 238 254 245 235 232 220 228 215 207 214 212 213 215 219 211 216 226 231 226 240 251 263 265 273 264 272 273 274 270 272 275 277 279 278 279
3 352 343 288 250 239 239 238 238 239 238 234 231 221 211 206 205 204 208 216 209 208 212 219 229 229 233 246 254 270 264 273 270 269 272 271 271 274 275 278 281 284 283
16 11 6 358 330 273 247 236 228 218 217 212 213 208 198 198 202 208 208 199 194 202 216 221 230 236 247 255 261 264 270 263 273 270 271 270 271 272 274 275 279 282 283
29 28 27 35 43 65 236 215 204 201 196 188 185 189 199 206 187 184 183 188 194 204 222 233 240 242 250 255 264 275 264 274 277 270 274 275 273 272 274 274 273 277 281
53 50 49 43 57 76 92 116 129 139 162 163 160 165 160 160 173 184 188 196 207 214 240 244 244 247 250 254 265 261 266 268 272 268 266 269 272 271 273 274 275 274 277
66 64 61 63 69 78 82 89 98 109 119 128 141 155 160 167 179 188 195 204 216 233 240 248 244 245 247 251 258 262 259 253 256 259 260 262 266 269 270 272 273 275 277
70 63 65 62 66 75 79 81 94 110 121 126 138 147 155 169 181 189 207 222 237 245 246 245 246 248 249 252 253 254 257 258 255 255 258 261 265 264 268 273 274 274 274
287 329 18 16 24 42 60 84 84 80 89 112 123 134 161 177 204 225 236 243 247 249 250 251 251 254 256 259 259 260 260 259 258 258 259 262 264 264 267 266 269 272 275
295 289 284 306 348 27 21 33 67 71 67 72 79 195 240 250 254 256 258 261 262 261 260 259 259 259 260 261 262 263 263 261 260 260 261 263 263 264 263 265 267 273 277
270 279 285 282 275 273 317 335 37 38 352 356 348 304 296 286 281 277 276 275 273 271 270 269 266 265 264 265 265 263 262 262 263 262 263 264 263 261 257 260 264 268 275
265 276 196 113 105 87 109 54 16 351 313 328 319 310 300 292 287 283 279 276 274 272 272 270 269 267 265 266 263 262 262 262 263 264 263 261 261 259 259 260 262 265 272
129 125 104 95 89 73 48 5 336 324 317 314 305 300 297 293 290 287 284 283 281 280 276 273 271 269 268 268 266 265 264 265 263 262 260 258 257 257 254 258 264 268 277
94 84 57 52 36 11 346 333 320 317 310 305 300 297 293 290 289 287 284 283 281 279 277 276 274 275 273 272 270 268 267 267 266 264 263 262 260 251 250 254 257 263 271
3 355 356 344 329 323 316 314 312 308 304 301 297 294 292 292 292 289 287 284 281 280 279 278 279 278 279 277 275 272 273 269 268 267 263 260 259 251 247 249 250 261 269
303 317 316 313 307 305 305 304 303 302 299 296 292 293 293 290 289 287 286 286 284 285 285 284 282 282 280 274 269 270 270 272 274 272 264 254 254 257 249 248 249 260 266
292 294 301 299 298 299 299 297 298 296 295 294 295 294 293 292 290 290 289 288 287 285 282 279 280 282 285 290 286 282 270 270 271 272 275 272 259 250 247 249 249 256 263
296 297 296 294 294 296 297 295 294 296 296 295 293 293 293 292 289 288 287 289 290 291 292 293 294 288 277 277 274 277 273 267 267 269 266 263 259 243 229 231 243 257 265
298 297 296 294 295 295 294 294 295 296 296 295 294 293 293 292 288 289 294 295 295 297 301 300 297 297 296 290 280 272 266 266 270 265 266 264 257 258 257 256 258 262 253
297 299 299 296 295 295 295 293 295 295 293 291 293 290 290 297 297 297 297 301 304 304 302 300 296 297 296 291 289 284 276 264 269 269 265 258 259 251 247 250 253 246 242
298 299 300 297 296 298 296 295 294 293 292 290 293 300 302 302 302 305 305 307 310 310 306 302 299 295 296 291 279 277 261 264 250 268 259 262 251 253 252 248 245 243 242
296 299 297 294 295 295 295 292 292 295 298 299 301 304 306 308 310 314 317 322 324 323 322 318 311 305 296 296 289 282 276 245 245 257 252 259 258 254 250 246 239 240 226
Wind_Speed_850mb
37 25 25 31 35 34 38 58 43 34 26 43 30 31 40 38 47 47 47 44 54 43 37 38 46 45 33 30 31 30 31 31 29 34 36 38 40 42 40 42 43 44 61
45 25 14 27 27 37 60 64 55 70 38 45 37 31 25 38 50 51 50 20 49 32 35 36 37 34 30 33 33 30 24 26 25 27 30 36 35 37 42 40 48 53 46
47 37 24 19 50 41 38 49 69 68 68 53 51 62 39 67 72 61 60 48 55 49 41 40 35 30 32 23 26 24 25 23 21 28 26 28 37 41 37 44 40 44 47
35 42 40 41 29 47 66 64 56 76 75 78 70 83 77 84 81 57 64 59 45 45 42 35 33 32 21 23 19 17 17 24 24 25 31 37 38 34 48 48 46 46 52
14 28 38 48 70 73 54 58 71 77 90 85 70 63 66 46 37 57 54 47 48 43 36 33 31 27 18 22 21 16 16 20 25 27 32 36 36 40 46 55 54 54 58
20 20 21 30 42 47 72 66 57 86 65 66 61 58 50 44 47 43 49 48 48 45 37 32 25 20 22 22 17 17 20 19 26 29 32 35 35 37 43 54 55 56 54
16 20 17 12 21 26 32 45 58 75 65 61 55 48 43 47 41 39 44 45 41 42 35 27 25 26 25 25 22 23 23 24 27 31 33 36 40 41 45 52 59 61 58
20 24 24 19 15 16 25 23 28 32 43 44 44 39 37 35 43 42 42 40 33 29 27 26 27 29 28 29 29 23 23 25 30 30 34 35 39 40 44 48 49 59 59
24 28 26 20 14 4 6 11 20 26 31 32 37 38 42 44 34 39 36 33 30 29 29 28 31 34 33 34 33 29 27 29 29 28 30 33 36 37 40 42 43 44 52
22 27 30 32 27 21 18 19 21 22 23 25 25 29 36 37 36 35 35 30 29 26 25 29 35 36 36 36 36 28 30 29 28 27 29 32 35 36 40 42 45 48 54
17 22 28 30 30 31 28 29 27 27 28 27 27 28 24 24 26 24 22 22 23 24 26 29 32 35 36 36 40 39 36 35 33 34 37 39 40 40 42 44 47 51 52
11 15 18 21 22 22 22 18 19 17 13 16 16 17 17 15 15 15 15 17 20 23 28 33 38 40 40 40 42 41 41 42 43 43 43 44 43 45 45 48 52 54 56
4 6 7 13 14 14 14 15 15 13 9 10 10 10 10 11 12 16 18 21 24 29 34 39 44 47 49 50 51 51 53 55 55 53 53 52 49 49 50 50 52 54 56
18 19 17 11 9 12 14 10 11 10 10 8 5 2 11 17 22 28 32 34 33 36 40 44 49 53 56 60 61 62 64 67 66 66 63 60 59 58 56 53 52 53 57
30 27 17 11 11 10 8 6 5 3 5 6 10 13 16 21 25 31 36 41 48 49 49 52 57 61 66 70 71 72 76 78 77 76 74 72 70 69 66 60 60 61 63
20 11 5 11 13 13 10 5 10 4 11 13 15 20 26 33 40 48 55 60 67 71 69 65 66 69 75 79 82 85 83 85 86 86 84 80 79 77 76 79 76 72 66
7 7 10 12 11 10 10 10 14 17 19 21 24 28 32 37 40 43 47 52 56 60 63 66 68 74 77 81 84 87 90 88 90 88 90 91 88 84 76 70 69 64 65
8 6 6 7 10 10 12 16 21 25 28 30 33 36 39 45 47 50 52 56 59 62 64 66 69 73 75 77 80 83 83 84 87 86 85 87 90 87 82 75 72 69 64
8 7 9 11 14 16 20 26 31 33 37 40 42 44 45 50 52 55 57 58 60 62 65 66 67 68 68 66 68 71 63 66 69 71 78 84 86 82 76 73 77 72 69
10 12 16 20 23 26 30 34 38 41 43 43 45 46 48 50 55 55 58 58 58 59 57 58 58 59 62 62 70 69 73 72 73 75 72 76 77 71 76 74 74 73 70
17 21 25 29 32 35 36 41 42 44 44 46 47 49 50 52 52 52 49 48 51 54 56 59 67 74 67 57 54 52 51 55 56 60 57 56 63 78 81 85 76 71 66
27 32 36 39 40 40 40 44 45 43 44 46 48 49 47 46 44 47 50 56 56 62 66 66 66 49 49 53 48 47 49 49 51 52 58 57 48 41 55 58 64 72 78
40 41 42 45 43 40 38 43 44 44 46 46 45 45 44 43 46 48 58 57 53 58 62 60 60 61 57 56 49 45 50 55 56 46 51 49 42 51 52 62 69 70 66
42 42 43 43 43 38 41 41 43 42 42 44 43 42 51 52 48 44 45 54 55 55 56 57 60 60 58 51 45 40 40 40 26 32 37 45 46 42 44 49 55 56 53
41 41 45 48 48 44 41 38 36 37 41 43 49 49 46 46 46 46 45 45 42 41 44 48 51 55 58 51 48 43 45 42 39 29 21 25 31 35 38 41 41 41 48
47 51 49 46 44 42 39 36 40 43 44 45 44 44 44 44 42 43 44 38 41 39 40 40 39 43 47 47 47 45 38 48 36 30 29 28 28 33 34 36 30 18 32
Wind_Direction_850mb
223 224 197 201 223 242 244 216 215 201 208 210 226 259 246 228 236 228 231 224 227 229 215 205 234 232 231 236 247 256 260 261 268 271 277 276 271 266 260 264 260 252 273
217 223 236 243 232 220 224 226 224 219 229 268 273 320 289 262 257 263 238 240 254 229 221 218 225 235 240 246 252 261 256 265 259 263 276 279 278 268 263 266 258 259 264
223 227 241 233 232 265 256 234 211 221 211 211 252 258 288 283 256 237 236 220 217 218 221 224 225 239 242 242 251 246 255 253 271 265 257 281 278 293 273 278 269 266 266
223 234 238 226 212 216 245 244 232 239 243 226 221 219 213 217 244 241 232 228 224 225 227 226 229 228 218 225 237 236 231 265 266 261 271 270 274 280 285 276 269 272 275
292 260 250 240 224 235 240 250 242 229 226 235 227 226 222 224 240 232 221 220 228 226 220 214 212 223 225 240 232 246 254 250 268 271 276 273 276 274 272 280 279 276 272
331 315 270 243 243 246 242 230 238 254 245 235 232 220 228 215 207 214 212 213 215 219 211 216 226 231 226 240 251 263 265 273 264 272 273 274 270 272 275 277 279 278 279
3 352 343 288 250 239 239 238 238 239 238 234 231 221 211 206 205 204 208 216 209 208 212 219 229 229 233 246 254 270 264 273 270 269 272 271 271 274 275 278 281 284 283
16 11 6 358 330 273 247 236 228 218 217 212 213 208 198 198 202 208 208 199 194 202 216 221 230 236 247 255 261 264 270 263 273 270 271 270 271 272 274 275 279 282 283
29 28 27 35 43 65 236 215 204 201 196 188 185 189 199 206 187 184 183 188 194 204 222 233 240 242 250 255 264 275 264 274 277 270 274 275 273 272 274 274 273 277 281
53 50 49 43 57 76 92 116 129 139 162 163 160 165 160 160 173 184 188 196 207 214 240 244 244 247 250 254 265 261 266 268 272 268 266 269 272 271 273 274 275 274 277
66 64 61 63 69 78 82 89 98 109 119 128 141 155 160 167 179 188 195 204 216 233 240 248 244 245 247 251 258 262 259 253 256 259 260 262 266 269 270 272 273 275 277
70 63 65 62 66 75 79 81 94 110 121 126 138 147 155 169 181 189 207 222 237 245 246 245 246 248 249 252 253 254 257 258 255 255 258 261 265 264 268 273 274 274 274
287 329 18 16 24 42 60 84 84 80 89 112 123 134 161 177 204 225 236 243 247 249 250 251 251 254 256 259 259 260 260 259 258 258 259 262 264 264 267 266 269 272 275
295 289 284 306 348 27 21 33 67 71 67 72 79 195 240 250 254 256 258 261 262 261 260 259 259 259 260 261 262 263 263 261 260 260 261 263 263 264 263 265 267 273 277
270 279 285 282 275 273 317 335 37 38 352 356 348 304 296 286 281 277 276 275 273 271 270 269 266 265 264 265 265 263 262 262 263 262 263 264 263 261 257 260 264 268 275
265 276 196 113 105 87 109 54 16 351 313 328 319 310 300 292 287 283 279 276 274 272 272 270 269 267 265 266 263 262 262 262 263 264 263 261 261 259 259 260 262 265 272
129 125 104 95 89 73 48 5 336 324 317 314 305 300 297 293 290 287 284 283 281 280 276 273 271 269 268 268 266 265 264 265 263 262 260 258 257 257 254 258 264 268 277
94 84 57 52 36 11 346 333 320 317 310 305 300 297 293 290 289 287 284 283 281 279 277 276 274 275 273 272 270 268 267 267 266 264 263 262 260 251 250 254 257 263 271
3 355 356 344 329 323 316 314 312 308 304 301 297 294 292 292 292 289 287 284 281 280 279 278 279 278 279 277 275 272 273 269 268 267 263 260 259 251 247 249 250 261 269
303 317 316 313 307 305 305 304 303 302 299 296 292 293 293 290 289 287 286 286 284 285 285 284 282 282 280 274 269 270 270 272 274 272 264 254 254 257 249 248 249 260 266
292 294 301 299 298 299 299 297 298 296 295 294 295 294 293 292 290 290 289 288 287 285 282 279 280 282 285 290 286 282 270 270 271 272 275 272 259 250 247 249 249 256 263
296 297 296 294 294 296 297 295 294 296 296 295 293 293 293 292 289 288 287 289 290 291 292 293 294 288 277 277 274 277 273 267 267 269 266 263 259 243 229 231 243 257 265
298 297 296 294 295 295 294 294 295 296 296 295 294 293 293 292 288 289 294 295 295 297 301 300 297 297 296 290 280 272 266 266 270 265 266 264 257 258 257 256 258 262 253
297 299 299 296 295 295 295 293 295 295 293 291 293 290 290 297 297 297 297 301 304 304 302 300 296 297 296 291 289 284 276 264 269 269 265 258 259 251 247 250 253 246 242
298 299 300 297 296 298 296 295 294 293 292 290 293 300 302 302 302 305 305 307 310 310 306 302 299 295 296 291 279 277 261 264 250 268 259 262 251 253 252 248 245 243 242
296 299 297 294 295 295 295 292 292 295 298 299 301 304 306 308 310 314 317 322 324 323 322 318 311 305 296 296 289 282 276 245 245 257 252 259 258 254 250 246 239 240 226